Tracking 26442 objects as of 6-Dec-2022
HD Live streaming from Space Station
objects crossing your sky now

GRBALPHA

Track GRBALPHA now!
10-day predictions
GRBALPHA is classified as:


NORAD ID: 47941
Int'l Code: 2021-022K
Perigee: 534.4 km
Apogee: 560.6 km
Inclination: 97.5 °
Period: 95.5 minutes
Semi major axis: 6918 km
RCS: Unknown
Launch date: March 22, 2021
Source: (TBD)
Launch site: TYURATAM MISSILE AND SPACE COMPLEX (TTMTR)

Uplink (MHz):
Downlink (MHz): 435.310
Beacon (MHz):
Mode: 9600bps GMSK
Call sign:
Status: Unknown

aabbcc
Your satellite tracking list
Your tracking list is empty




NASA's NSSDC Master Catalog

Two Line Element Set (TLE):
1 47941U 21022K   22340.27346150  .00005041  00000-0  32484-3 0  9995
2 47941  97.5139 236.0897 0018928 280.6805 232.8100 15.08626533 93886
Source of the keplerian elements: AFSPC